Flag for Germany Weather past 2 weeks in Celle, Lower Saxony, Germany

Now
73 °F

Scattered clouds.


Feels Like: 76 °F
Forecast: 56 / 72 °F
Wind: 7 mph from East

Location: Celle Airport

Current Time: Sep 16, 2014 at 6:03:46 PM

Latest Report: Sep 16, 2014 at 5:20 PM


Visibility: N/A

Pressure: 30.01 "Hg

Humidity: 65%

Dew point: 61 °F

Location of CelleLocation

Historic Weather in Celle — Graph

°F

Celle temperature yesterday

Maximum temperature yesterday: 70 °F (at 5:20 PM)
Minimum temperature yesterday: 61 °F (at 12:20 AM)
Average temperature yesterday: 63 °F

Past Weeks' High & Low Weather Summary

 TemperatureHumidityPressure
High79 °F (Sep 6, 2:20 PM)100% (Sep 2, 6:20 AM)30.30 "Hg (Sep 2, 6:20 AM)
Low48 °F (Sep 3, 6:20 AM)49% (Sep 8, 6:20 PM)29.86 "Hg (Sep 6, 3:20 PM)
Average62 °F84%30.09 "Hg
* Reported Sep 1 4:20 PM — Sep 16 4:20 PM, Celle, Weather by CustomWeather, © 2014

Note: Actual official high and low records may vary slightly from our data, if they occured in-between our weather recording intervals... More about our weather records

Advertising

Celle weather history for previous 24 hours

 ConditionsComfort  
Time TempWeatherWind HumidityBarometerVisibility
4:20 PM
Sep 16
75 °FScattered clouds.10 mph65%30.01 "HgN/A
3:20 PM75 °FScattered clouds.13 mph61%30.01 "HgN/A
2:20 PM73 °FScattered clouds.12 mph65%30.04 "HgN/A
1:20 PM72 °FScattered clouds.12 mph69%30.04 "Hg6 mi
12:20 PM68 °FScattered clouds.12 mph73%30.07 "Hg6 mi
11:20 AM66 °FScattered clouds.8 mph78%30.07 "Hg6 mi
10:20 AM63 °FScattered clouds.8 mph83%30.07 "Hg6 mi
9:20 AM61 °FScattered clouds.7 mph83%30.07 "Hg6 mi
8:20 AM57 °FScattered clouds.5 mph94%30.07 "Hg6 mi
7:20 AM55 °FPassing clouds.5 mph94%30.07 "Hg5 mi
6:20 AM57 °FFog.3 mph94%30.07 "Hg5 mi
5:20 AM57 °FPassing clouds.2 mph94%30.07 "Hg5 mi
4:20 AM57 °FPassing clouds.3 mph94%30.07 "Hg4 mi
3:20 AM59 °FFog.3 mph94%30.07 "Hg3 mi
2:20 AM61 °FFog.3 mph94%30.07 "Hg2 mi
1:20 AM61 °FFog.5 mph94%30.07 "Hg2 mi
12:20 AM61 °FFog.No wind94%30.07 "Hg3 mi
11:20 PM
Sep 15
61 °FFog.1 mph100%30.07 "Hg3 mi
10:20 PM61 °FFog.1 mph94%30.07 "Hg2 mi
9:20 PM63 °FFog.3 mph94%30.07 "Hg3 mi
8:20 PM66 °FFog.5 mph83%30.07 "Hg3 mi
7:20 PM66 °FScattered clouds.3 mph83%30.07 "Hg6 mi
6:20 PM70 °FScattered clouds.7 mph73%30.07 "HgN/A
Weather by CustomWeather, © 2014

See weather overviewHow to use our weather pages